Weather History for Oujda, Morocco

Change the Weather History Date:

Friday, March 28, 2014

  Actual Average Record
Temperature  
Mean Temperature 60 °F -  
Max Temperature 76 °F 69 °F 80 °F (1998)
Min Temperature 43 °F 46 °F 42 °F (2005)
Degree Days  
Heating Degree Days 6    
Growing Degree Days 10 (Base 50)    
Moisture  
Dew Point 31 °F    
Average Humidity 36    
Maximum Humidity 87    
Minimum Humidity 7    
Precipitation  
Precipitation 0.00 in 0.06 in - ()
Sea Level Pressure  
Sea Level Pressure 29.64 in    
Wind  
Wind Speed 10 mph ()    
Max Wind Speed 22 mph    
Max Gust Speed 31 mph    
Visibility 6.0 miles    
Events Fog    
Averages and records for this station are not official NWS values.
T = Trace of Precipitation, MM = Missing Value Source: Averaged Metar Reports

Daily Weather History Graph

Daily Weather History Graph

Search for Another Location

Airport:

Trip Planner

Search our weather history database for the weather conditions in past years. The results will help you decide how hot, cold, wet, or windy it might be!

Date:

Astronomy

Mar. 28, 2014 Rise Set
Actual Time 6:00 AM WET 6:25 PM WET
Civil Twilight 5:35 AM WET 6:50 PM WET
Nautical Twilight 5:05 AM WET 7:20 PM WET
Astronomical Twilight 4:35 AM WET 7:50 PM WET
Moon 4:16 AM WET (3/28) 4:10 PM WET (3/28)
Length of Visible Light 13h 15m
Length of Day
12h 25m
Waning Crescent, 7% of the Moon is Illuminated
Mar 28
Waning Crescent
Mar 30
New
Apr 7
First Quarter
Apr 15
Full
Apr 22
Last Quarter

Hourly Weather History & Observations

Time (WET) Temp. Windchill Dew Point Humidity Pressure Visibility Wind Dir Wind Speed Gust Speed Precip Events Conditions
12:00 AM 44 °F - 40 °F 83% 29.80 in 16 mi SW 4.6 mph - -   Clear
12:00 AM 44.6 °F 42.2 °F 41.0 °F 87% 29.77 in - SW 4.6 mph - N/A   Clear
1:00 AM 44.6 °F 42.2 °F 39.2 °F 81% 29.74 in - SSW 4.6 mph - N/A   Clear
2:00 AM 44.6 °F 42.2 °F 41.0 °F 87% 29.74 in - WSW 4.6 mph - N/A   Clear
3:00 AM 44 °F - 39 °F 78% 29.75 in 9 mi South 3.5 mph - -   Clear
3:00 AM 44.6 °F - 39.2 °F 81% 29.71 in - Variable 2.3 mph - N/A   Clear
4:00 AM 50.0 °F - 37.4 °F 62% 29.68 in - SW 10.4 mph - N/A   Clear
5:00 AM 57.2 °F - 32.0 °F 38% 29.68 in - SSW 13.8 mph - N/A   Clear
6:00 AM 61 °F - 28 °F 17% 29.68 in 16 mi SSW 20.7 mph - -   Clear
6:00 AM 60.8 °F - 28.4 °F 29% 29.68 in - SSW 20.7 mph - N/A   Clear
7:00 AM 60.8 °F - 28.4 °F 29% 29.71 in - South 18.4 mph - N/A   Clear
8:00 AM 62.6 °F - 28.4 °F 27% 29.71 in - SSW 12.7 mph - N/A   Clear
9:00 AM 65 °F - 29 °F 16% 29.70 in 16 mi South 12.7 mph - -   Clear
9:00 AM 64.4 °F - 30.2 °F 28% 29.74 in - South 12.7 mph - N/A   Clear
10:12 AM 69.8 °F - 30.2 °F 23% 29.71 in 5.0 mi South 18.4 mph 31.1 mph N/A   Unknown
11:00 AM 71.6 °F - 30.2 °F 22% 29.71 in 3.7 mi South 12.7 mph - N/A   Unknown
12:00 PM 73 °F - 27 °F 9% 29.61 in - SSW 16.1 mph - - Fog Heavy Fog
12:00 PM 77.0 °F - 26.6 °F 16% 29.65 in 3.7 mi South 19.6 mph - N/A   Unknown
1:00 PM 77.0 °F - 26.6 °F 16% 29.62 in 3.1 mi SSW 21.9 mph - N/A   Unknown
2:00 PM 78.8 °F - 26.6 °F 15% 29.56 in 3.1 mi South 19.6 mph - N/A   Mostly Cloudy
3:00 PM 78 °F - 25 °F 7% 29.48 in 3 mi SSW 19.6 mph - -   Partly Cloudy
3:00 PM 77.0 °F - 24.8 °F 14% 29.56 in 3.1 mi SSW 19.6 mph - N/A   Mostly Cloudy
4:00 PM 77.0 °F - 24.8 °F 14% 29.53 in 4.3 mi South 16.1 mph - N/A   Mostly Cloudy
5:00 PM 77.0 °F - 23.0 °F 13% 29.50 in 4.3 mi South 12.7 mph - N/A   Mostly Cloudy
6:00 PM 72 °F - 20 °F 7% 29.46 in - SSW 16.1 mph - -   Clear
7:00 PM 75.2 °F - 23.0 °F 14% 29.47 in 3.1 mi South 17.3 mph - N/A   Mostly Cloudy
8:00 PM 73.4 °F - 24.8 °F 16% 29.47 in 3.1 mi South 5.8 mph - N/A   Scattered Clouds
9:00 PM 61 °F - 50 °F 57% 29.49 in 3 mi NW 8.1 mph - -   Scattered Clouds
10:00 PM 55.4 °F - 44.6 °F 67% 29.56 in 3.1 mi West 15.0 mph - N/A   Scattered Clouds